Tracking 29088 objects as of 13-Jul-2024
HD Live streaming from Space Station
objects crossing your sky now

COSMOS 1275 DEB

Track COSMOS 1275 DEB now!
10-day predictions


NORAD ID: 42209
Int'l Code: 1981-053TZ
Perigee: 904.1 km
Apogee: 988.5 km
Inclination: 82.9 °
Period: 103.8 minutes
Semi major axis: 7317 km
RCS: Unknown
Launch date: June 4, 1981
Source: Commonwealth of Independent States (former USSR) (CIS)
Launch site: PLESETSK MISSILE AND SPACE COMPLEX (PKMTR)

Note: This is SATELLITE DEBRIS
Your satellite tracking list
Your tracking list is empty




NASA's NSSDC Master Catalog

Two Line Element Set (TLE):
1 42209U 81053TZ  24194.78379789  .00000999  00000-0  82902-3 0  9993
2 42209  82.8753 211.8944 0057679  84.9612 275.8131 13.87011125537938
Source of the keplerian elements: AFSPC